千帆星座-23 (QIANFAN-23)

导读

QIANFAN-23 是中国北斗卫星导航系统的一部分,主要用于提供高精度定位、导航和授时服务。该卫星采用先进技术和稳定平台,增强了系统的覆盖范围和可靠性。QIANFAN-23 的成功发射进一步提升了北斗系统在全球范围内的竞争力,为交通运输、农业、通信、应急救援等多个领域提供重要支持。其运行有助于实现国家在空间技术和信息基础设施方面的战略目标。

Basic Information
目录编号:
61556
目录名称:
QIANFAN-23
国际标识:
2024-185E
轨道中心:
EARTH
卫星名称:
千帆星座-23
卫星全名:
千帆星座-23 (QIANFAN-23)
卫星状态:
在轨 (已飞行651 天)
发射日期:
2024-10-15 UTC
国别 :
中国 (CN)
星等 :
--
Orbit Information
数据来源 国际轨道数据 AOE轨道数据
星历时间 2026-07-27T21:02:09+0800
14小时前
查看轨道信息
2026-07-27T03:00:00+0800
1天前
查看轨道信息
半长轴 7215.266km 7215.258km
偏心率 0.0005757 0.0005444
轨道倾角 88.980° 88.981°
近地点辐角 320.019° 324.436°
升交点赤经 51.657° 51.742°
平近点角 40.057° 165.872°
近地点 832.975km 833.193km
远地点 841.283km 841.049km
周期 101.657分钟 101.657分钟
每日圈数 14.165251 14.165275
Detailed Information
卫星平台:
23
覆盖范围:
全球
运营商:
上海垣信卫星科技有限公司
运营商所在国:
中国
使用方式:
暂无
Satellite Introduction
千帆星座,也被称为“G60星链”计划,是中国版“星链”的重要组成部分,旨在打造一个由1.4万多颗低轨宽频多媒体卫星构成的庞大星座。千帆星座计划由上海垣信卫星科技有限公司负责实施,于2023年启动建设。该项目是我国第二个低轨卫星大星座,旨在通过构建庞大的卫星网络,为全球用户提供高质量的通信和宽带互联网服务。
2D Orbit Map
3D Orbit Map
Orbit Altitude Analysis Chart
Orbit Inclination Analysis Chart
Orbit Comprehensive Analysis Chart
View Comprehensive Chart